Location: Fontaine
(46.6450°N, 0.3860°E)
Time: 06:47:28
(UTC+00:00)

Daily predictions for brighter satellites

Satellite Brightness Start Highest point End
(mag) Time Altitude Azimuth Time Altitude Azimuth Time Altitude Azimuth
Cosmos 1607 4.4 20:15:09 10° SW 20:21:21 69° NW 20:27:32 10° NNE
Gbstr 26 Del rocket 4.4 20:17:24 10° W 20:21:51 48° N 20:27:18 10° ENE
TSX-5 3.8 20:19:11 10° NNW 20:22:13 47° ENE 20:25:28 10° SE
Cosmos 1570 Rocket 4.3 20:17:15 10° NNW 20:22:32 70° WSW 20:27:43 10° S
NOSS 3-4 (A) 4.1 20:18:03 10° NW 20:24:44 66° NE 20:32:38 10° SE
NOSS 3-4 (C) 4.1 20:18:05 10° NW 20:24:46 65° NE 20:32:37 10° SE
Terra 2.0 20:20:15 10° SSE 20:24:52 60° ENE 20:29:32 10° N
Cosmos 1943 Rocket 4.4 20:23:08 10° WSW 20:28:02 31° NW 20:33:00 10° NNE
Cosmos 1634 Rocket 4.0 20:22:23 10° N 20:28:36 84° E 20:34:45 10° S
Cosmos 1606 3.5 20:26:23 10° NNW 20:29:17 38° W 20:32:09 10° SSW
Spot 2 Rocket 3.9 20:27:56 10° SE 20:32:49 50° ENE 20:37:43 10° N
IRS-1A Rocket 4.3 20:27:24 10° SSE 20:32:51 69° ENE 20:38:24 10° N
Cosmos 1486 Rocket 4.0 20:30:20 10° SSW 20:35:35 82° ESE 20:40:56 10° NNE
USA 186 3.8 20:34:06 10° SSW 20:36:16 21° W 20:38:29 10° NW
NOSS 5 (C) 4.5 20:33:15 10° NW 20:36:32 69° SW 20:39:48 10° SSE
SPOT 5 3.9 20:32:26 10° S 20:37:32 51° W 20:42:43 10° NNW
Cosmos 1818 4.0 20:32:16 10° NNW 20:37:37 53° NE 20:42:53 10° SE
Cosmos 1674 Rocket 4.0 20:34:00 10° SSE 20:38:10 43° E 20:42:22 10° NNE
ERS-1 Rocket 3.1 20:39:07 10° S 20:44:06 79° WSW 20:49:08 10° NNW
USA 245 3.5 20:40:54 10° SSE 20:45:03 52° ENE 20:48:23 10° N
Cosmos 2279 Rocket 4.0 20:39:08 10° N 20:45:24 78° E 20:51:39 10° SSE
Cosmos 2297 3.7 20:42:18 10° SSW 20:47:53 70° ESE 20:53:32 10° NNE
Meteor 1-21 Rocket 4.3 20:42:27 10° S 20:48:02 64° E 20:53:34 10° NNE
Okean-O 2.8 20:46:58 10° S 20:51:21 76° WSW 20:55:44 10° NNW
Cosmos 1812 3.9 20:49:29 10° NNE 20:51:55 20° ENE 20:53:43 13° ESE
Cosmos 1656 Rocket 4.1 20:48:33 10° SW 20:54:05 66° WNW 20:59:33 10° NNE
Cosmos 1378 Rocket 3.5 20:49:50 10° S 20:54:07 85° E 20:58:26 10° N
COSMOS 2406 4.5 20:49:13 10° NW 20:54:28 37° WSW 20:59:39 10° S
BlueWalker 3 3.8 20:53:59 10° WNW 20:57:13 28° N 21:00:27 10° ENE
Okean O Rocket 2.4 20:53:53 10° S 20:58:06 48° W 21:02:22 10° NNW
Cosmos 990 Rocket 4.4 20:53:35 10° S 20:58:26 43° ESE 21:03:20 10° NE
Cosmos 1025 Rocket 3.4 20:54:35 10° SSE 20:58:41 44° E 21:02:50 10° NNE
In-Cosmos 22 Rocket 4.4 21:05:14 10° SSW 21:11:03 83° W 21:16:50 10° N
Cosmos 1503 Rocket 4.3 21:12:43 10° SSW 21:17:51 68° WNW 21:23:00 10° NNE
Cosmos 2369 Rocket 2.6 21:17:29 10° SW 21:23:09 69° WNW 21:28:50 10° NNE
Cosmos 1354 Rocket 4.1 21:22:07 10° SSW 21:27:20 78° WNW 21:32:36 10° NNE
ASTEX 1 3.3 21:22:48 10° N 21:27:42 87° E 21:32:10 12° S
SAR-Lupe-2 3.7 21:29:36 21° S 21:31:56 74° WSW 21:35:32 10° NNW
Cosmos 2297 Rocket 4.0 21:30:29 10° N 21:34:42 21° NE 21:38:54 10° E
ISS -2.5 21:31:35 10° WNW 21:34:45 40° NNE 21:37:42 12° E
DELTA 2 R/B (1) 4.2 21:30:07 10° SW 21:35:04 34° SSE 21:38:43 17° ESE
Ariane Rocket 3.0 21:32:58 18° S 21:36:45 81° WSW 21:41:50 10° NNW
COBE Rocket 3.8 21:33:03 10° NNE 21:37:39 57° E 21:40:36 21° S
Okean 2 Rocket 3.9 21:35:09 10° NNW 21:39:22 47° W 21:42:59 13° SSW
Tiangong -0.2 21:37:01 10° SW 21:38:13 17° SSW 21:38:13 17° SSW
Cosmos 2098 Rocket 4.0 21:37:07 10° NNE 21:39:49 23° ENE 21:40:46 20° E
CZ-4C R/B 1.6 21:40:45 10° SSW 21:44:59 82° SE 21:50:23 10° NE
Cosmos 44 3.0 21:45:45 10° SW 21:50:03 82° NW 21:54:29 10° NE
Lacrosse 5 rocket 3.9 21:47:31 10° NW 21:50:17 18° N 21:53:04 10° NE
Cosmos 1515 2.5 21:48:32 10° N 21:51:08 72° E 21:51:23 64° SE
Okean 1 Rocket 4.0 21:49:10 10° NNW 21:53:19 43° W 21:56:27 16° SSW
Cosmos 1975 Rocket 3.2 21:53:28 30° SSE 21:55:21 55° E 21:59:34 10° NNE
Nadezhda 4 Rocket 4.3 21:51:38 10° SSW 21:57:55 67° W 22:04:15 10° N
Cosmos 2228 3.5 21:57:38 10° N 22:01:42 45° ENE 22:03:10 32° SE
Terra 4.2 21:59:45 10° SW 22:02:48 17° W 22:05:51 10° NW
Cosmos 1455 Rocket 3.1 22:00:39 10° NNW 22:04:56 71° W 22:07:03 29° S
Cosmos 2285 Rocket 4.1 22:00:28 10° SSW 22:06:52 83° WNW 22:13:20 10° NNE
Cosmos 2227 Rocket 4.3 22:03:26 10° N 22:07:21 19° NE 22:11:15 10° E
Cosmos 1867 3.5 22:02:46 13° SSW 22:07:34 65° ESE 22:12:59 10° NE
Gbstr 26 Del rocket 4.0 22:03:54 10° WNW 22:08:59 63° NNE 22:15:18 10° E
BREEZE M DEB (TANK) 2.2 22:05:25 10° WSW 22:09:47 61° SSE 22:10:09 53° ESE
BREEZE-M DEB (TANK) 3.7 22:05:18 10° W 22:15:37 70° NNW 22:18:56 10° ENE
Cosmos 2026 Rocket 3.9 22:12:17 20° S 22:16:36 85° W 22:22:42 10° N
Cosmos 1898 Rocket 3.4 22:16:18 23° SSW 22:19:35 82° ESE 22:24:51 10° NNE
Iridium 82 4.2 22:16:51 10° N 22:20:14 83° W 22:20:46 59° S
CZ-2C R/B 4.4 22:18:12 10° NNE 22:22:38 38° E 22:23:40 34° SE
Cosmos 1812 4.3 22:22:43 10° NW 22:25:08 20° W 22:26:19 17° WSW
USA 81 4.0 22:25:23 29° S 22:28:11 82° W 22:33:29 10° N
ARIANE 5 R/B 3.2 22:30:39 35° ESE 22:32:02 48° ENE 22:36:18 10° N
Cosmos 1553 Rocket 4.0 22:26:37 10° N 22:32:54 74° E 22:35:55 33° SSE
BlueWalker 3 2.5 22:31:52 10° NW 22:35:28 51° NNE 22:36:56 30° E
Cosmos 1092 Rocket 4.3 22:35:06 20° SSW 22:39:39 64° WNW 22:45:56 10° N
CZ-4C R/B 3.0 22:42:40 10° NNE 22:46:20 70° ESE 22:46:38 66° SE
DELTA 2 DEB (DPAF) 4.0 22:42:27 10° N 22:46:21 69° WNW 22:47:30 43° SW
ATLAS 2AS CENTAUR R/B 4.3 22:42:27 10° NNW 22:48:18 29° NNE 22:54:03 10° E
Cosmos 1536 Rocket 3.8 22:48:20 47° SE 22:49:02 53° E 22:53:20 10° NNE
Cosmos 1656 3.6 22:47:10 35° S 22:49:32 73° ESE 22:55:04 10° NNE
RESURS DK-1 2.2 22:47:54 10° NNW 22:51:55 79° ENE 22:52:29 62° SE
S3M 4.4 22:47:37 10° N 22:53:49 54° ENE 22:56:23 33° SE
Cosmos 2263 Rocket 4.2 22:50:44 10° N 22:55:00 21° NE 22:59:12 10° E
Cosmos 1544 Rocket 3.7 22:51:07 10° NNW 22:55:27 67° W 22:56:31 48° SSW
Cosmos 1606 Rocket 4.3 22:53:50 10° N 22:57:58 40° ENE 22:58:50 36° ESE
Cosmos 2058 2.9 23:01:15 55° ESE 23:01:24 56° E 23:05:17 10° NNE
Cosmos 1400 Rocket 2.6 22:58:56 10° NNW 23:02:44 73° W 23:03:02 68° SW
Meteor 2-20 Rocket 4.3 22:56:48 10° N 23:02:51 83° W 23:05:05 40° S
USA 215 3.7 22:58:33 10° ESE 23:04:57 59° NNE 23:11:21 10° NW
Cosmos 1782 2.6 23:05:44 10° N 23:09:24 64° E 23:09:26 64° E
Cosmos 2112 Rocket 4.0 23:05:34 10° NNW 23:10:51 77° WSW 23:12:22 48° S
ISS -2.7 23:08:17 10° WNW 23:10:32 37° W 23:10:32 37° W
Cosmos 1937 Rocket 4.4 23:14:20 19° SW 23:17:41 45° WNW 23:22:37 10° N
Cosmos 2098 Rocket 4.4 23:15:14 10° NW 23:17:49 21° W 23:18:12 21° W
Cosmos 1862 3.8 23:18:17 42° ENE 23:18:17 42° ENE 23:21:27 10° NNE
Cosmos 2297 Rocket 2.1 23:13:47 10° NNW 23:19:28 83° WSW 23:21:13 46° SSE
DELTA 2 R/B (1) 4.3 23:15:41 10° WSW 23:19:25 34° SW 23:19:25 34° SW
Cosmos 1726 Rocket 4.0 23:16:44 10° N 23:21:16 53° ENE 23:22:11 45° ESE
Cosmos 1680 Rocket 3.9 23:16:17 10° NNW 23:21:25 53° WSW 23:22:44 42° SSW
ALOS 2 2.5 23:22:00 63° SSE 23:22:42 87° ENE 23:27:07 10° NNW
Cosmos 2058 Rocket 4.4 23:19:02 10° NNE 23:22:56 29° ENE 23:23:59 26° E
PSLV R/B 3.9 23:19:18 10° NNE 23:23:54 56° E 23:24:32 51° SE
Lacrosse 5 rocket 2.7 23:24:57 10° NW 23:28:35 34° NNE 23:31:05 17° E
Cosmos 1980 Rocket 3.4 23:28:23 25° ESE 23:28:57 26° ESE 23:33:31 10° NE
MetOp-A 4.1 23:33:09 38° WSW 23:33:12 38° W 23:36:46 10° NNW
Cosmos 1697 Rocket 2.8 23:32:03 47° SSE 23:33:20 60° ESE 23:38:56 10° NNE
CZ-4C R/B 4.3 23:30:04 10° W 23:34:03 25° NNW 23:38:52 10° NNE
Cosmos 1356 Rocket 3.8 23:30:59 10° N 23:34:54 47° ENE 23:35:17 46° E
Cosmos 2360 4.3 23:33:07 34° SW 23:35:39 75° WNW 23:41:23 10° NNE
Cosmos 1892 Rocket 3.6 23:39:40 57° ESE 23:39:56 58° E 23:44:11 10° NNE
CZ-2C R/B 4.5 23:36:52 14° ESE 23:40:20 25° ENE 23:44:47 10° N
Spot 1 4.2 23:36:46 10° NNE 23:41:30 65° ESE 23:42:05 59° SE
PSLV R/B 4.4 23:40:04 10° NNE 23:43:44 43° E 23:43:44 43° E
Cosmos 1441 Rocket 3.8 23:44:49 41° ENE 23:44:49 41° ENE 23:47:34 10° NNE
Meteor 2-3 Rocket 4.0 23:46:45 44° SSE 23:48:20 59° E 23:54:00 10° NNE
GEOS 3 Rocket 3.5 23:44:50 10° NE 23:50:08 80° SE 23:51:47 46° SSW
Cosmos 2227 Rocket 2.1 23:46:33 10° NNW 23:52:17 84° ENE 23:54:06 45° SSE
Cosmos 494 Rocket 4.4 23:48:44 10° NNW 23:53:43 46° WSW 23:54:34 42° SW
Cosmos 1125 Rocket 3.8 23:52:54 46° SE 23:53:45 51° ESE 23:58:49 10° NNE
